| time (UTC) | temp F | wind direction | speed MPH | gust MPH | rain 1hr in | rain 24hr in | rain mn in | humidity % | barometer mb |
| 20260831183404 | 93 | 246 | 4.0 | 13.0 | 0.00 | 0.00 | 0.00 | 27 | 1012.1 |
| 20260831181904 | 94 | 275 | 3.0 | 9.0 | 0.00 | 0.00 | 0.00 | 28 | 1012.1 |
| 20260831181404 | 94 | 260 | 2.0 | 10.0 | 0.00 | 0.00 | 0.00 | 28 | 1012.0 |
| 20260831180905 | 94 | 249 | 5.0 | 14.0 | 0.00 | 0.00 | 0.00 | 28 | 1012.0 |
| 20260831180404 | 94 | 241 | 5.0 | 12.0 | 0.00 | 0.00 | 0.00 | 28 | 1012.0 |
| 20260831174904 | 95 | 233 | 3.0 | 9.0 | 0.00 | 0.00 | 0.00 | 29 | 1012.0 |
| 20260831174404 | 95 | 237 | 5.0 | 12.0 | 0.00 | 0.00 | 0.00 | 29 | 1012.0 |
| 20260831173904 | 95 | 252 | 2.0 | 14.0 | 0.00 | 0.00 | 0.00 | 29 | 1012.1 |
| 20260831173405 | 95 | 232 | 3.0 | 13.0 | 0.00 | 0.00 | 0.00 | 29 | 1012.1 |
| 20260831171904 | 95 | 229 | 5.0 | 9.0 | 0.00 | 0.00 | 0.00 | 29 | 1012.1 |
| 20260831171405 | 95 | 206 | 9.0 | 13.0 | 0.00 | 0.00 | 0.00 | 30 | 1012.1 |
| 20260831170905 | 95 | 210 | 6.0 | 9.0 | 0.00 | 0.00 | 0.00 | 33 | 1012.1 |
| 20260831170404 | 96 | 183 | 2.0 | 9.0 | 0.00 | 0.00 | 0.00 | 33 | 1012.0 |
| 20260831164904 | 96 | 191 | 1.0 | 9.0 | 0.00 | 0.00 | 0.00 | 31 | 1012.0 |
| 20260831164405 | 96 | 192 | 5.0 | 10.0 | 0.00 | 0.00 | 0.00 | 30 | 1012.0 |
| 20260831163904 | 96 | 196 | 2.0 | 7.0 | 0.00 | 0.00 | 0.00 | 28 | 1012.1 |
| 20260831163405 | 96 | 141 | 2.0 | 9.0 | 0.00 | 0.00 | 0.00 | 28 | 1012.1 |
| 20260831161404 | 96 | 160 | 1.0 | 5.0 | 0.00 | 0.00 | 0.00 | 30 | 1012.3 |
| 20260831160905 | 96 | 182 | 2.0 | 6.0 | 0.00 | 0.00 | 0.00 | 30 | 1012.4 |
| 20260831154904 | 96 | 226 | 2.0 | 10.0 | 0.00 | 0.00 | 0.00 | 32 | 1012.4 |
| 20260831153404 | 96 | 174 | 1.0 | 10.0 | 0.00 | 0.00 | 0.00 | 32 | 1012.6 |
| 20260831151905 | 96 | 120 | 1.0 | 7.0 | 0.00 | 0.00 | 0.00 | 31 | 1012.7 |
| 20260831151404 | 96 | 177 | 3.0 | 7.0 | 0.00 | 0.00 | 0.00 | 30 | 1012.7 |
| 20260831150904 | 96 | 179 | 2.0 | 7.0 | 0.00 | 0.00 | 0.00 | 29 | 1012.7 |
| 20260831150404 | 96 | 190 | 4.0 | 8.0 | 0.00 | 0.00 | 0.00 | 29 | 1012.7 |
| 20260831144904 | 96 | 194 | 2.0 | 7.0 | 0.00 | 0.00 | 0.00 | 31 | 1012.7 |
| 20260831144404 | 96 | 154 | 1.0 | 5.0 | 0.00 | 0.00 | 0.00 | 31 | 1012.9 |
| 20260831143904 | 96 | 230 | 4.0 | 7.0 | 0.00 | 0.00 | 0.00 | 31 | 1013.0 |
| 20260831143405 | 96 | 190 | 1.0 | 9.0 | 0.00 | 0.00 | 0.00 | 29 | 1013.1 |
| 20260831141905 | 96 | 112 | 2.0 | 7.0 | 0.00 | 0.00 | 0.00 | 29 | 1013.2 |
| 20260831141405 | 96 | 172 | 1.0 | 5.0 | 0.00 | 0.00 | 0.00 | 29 | 1013.3 |
| 20260831140404 | 96 | 253 | 3.0 | 8.0 | 0.00 | 0.00 | 0.00 | 30 | 1013.4 |
| 20260831134904 | 95 | 101 | 0.0 | 3.0 | 0.00 | 0.00 | 0.00 | 30 | 1013.5 |
| 20260831134405 | 95 | 104 | 1.0 | 3.0 | 0.00 | 0.00 | 0.00 | 30 | 1013.5 |
| 20260831133404 | 95 | 229 | 0.0 | 6.0 | 0.00 | 0.00 | 0.00 | 31 | 1013.7 |
| 20260831131905 | 94 | 334 | 0.0 | 2.0 | 0.00 | 0.00 | 0.00 | 31 | 1013.8 |
| 20260831131405 | 94 | 351 | 2.0 | 7.0 | 0.00 | 0.00 | 0.00 | 31 | 1013.8 |
| 20260831130904 | 93 | 217 | 0.0 | 1.0 | 0.00 | 0.00 | 0.00 | 32 | 1013.9 |
| 20260831130404 | 93 | 261 | 1.0 | 5.0 | 0.00 | 0.00 | 0.00 | 32 | 1013.9 |
| 20260831124904 | 93 | 111 | 0.0 | 1.0 | 0.00 | 0.00 | 0.00 | 33 | 1014.0 |
| 20260831124405 | 92 | 58 | 0.0 | 2.0 | 0.00 | 0.00 | 0.00 | 33 | 1014.1 |
| 20260831123905 | 92 | 111 | 5.0 | 9.0 | 0.00 | 0.00 | 0.00 | 34 | 1014.1 |
| 20260831123404 | 92 | 62 | 0.0 | 5.0 | 0.00 | 0.00 | 0.00 | 34 | 1014.2 |
| 20260831121904 | 92 | 14 | 0.0 | 5.0 | 0.00 | 0.00 | 0.00 | 34 | 1014.4 |
| 20260831121404 | 92 | 183 | 0.0 | 2.0 | 0.00 | 0.00 | 0.00 | 35 | 1014.5 |
| 20260831120905 | 91 | 208 | 0.0 | 1.0 | 0.00 | 0.00 | 0.00 | 35 | 1014.5 |
| 20260831120404 | 91 | 218 | 0.0 | 3.0 | 0.00 | 0.00 | 0.00 | 35 | 1014.6 |
| 20260831114905 | 91 | 225 | 0.0 | 0.0 | 0.00 | 0.00 | 0.00 | 35 | 1014.8 |
| 20260831114405 | 91 | 261 | 0.0 | 1.0 | 0.00 | 0.00 | 0.00 | 36 | 1014.9 |
| 20260831113905 | 91 | 344 | 0.0 | 0.0 | 0.00 | 0.00 | 0.00 | 36 | 1015.0 |
| 20260831113405 | 91 | 49 | 0.0 | 3.0 | 0.00 | 0.00 | 0.00 | 36 | 1015.1 |
| 20260831110904 | 90 | 115 | 0.0 | 5.0 | 0.00 | 0.00 | 0.00 | 37 | 1015.3 |
| 20260831110404 | 89 | 52 | 0.0 | 2.0 | 0.00 | 0.00 | 0.00 | 38 | 1015.4 |
| 20260831104904 | 88 | 164 | 0.0 | 0.0 | 0.00 | 0.00 | 0.00 | 39 | 1015.4 |
| 20260831104404 | 88 | 49 | 0.0 | 5.0 | 0.00 | 0.00 | 0.00 | 38 | 1015.5 |
| 20260831103904 | 87 | 61 | 0.0 | 1.0 | 0.00 | 0.00 | 0.00 | 39 | 1015.6 |
| 20260831103404 | 87 | 44 | 0.0 | 7.0 | 0.00 | 0.00 | 0.00 | 39 | 1015.6 |
| 20260831101904 | 86 | 103 | 0.0 | 1.0 | 0.00 | 0.00 | 0.00 | 41 | 1015.7 |
| 20260831101404 | 86 | 113 | 0.0 | 1.0 | 0.00 | 0.00 | 0.00 | 41 | 1015.8 |
| 20260831100904 | 85 | 64 | 0.0 | 1.0 | 0.00 | 0.00 | 0.00 | 41 | 1015.8 |
| 20260831100404 | 85 | 76 | 0.0 | 2.0 | 0.00 | 0.00 | 0.00 | 41 | 1015.8 |
| 20260831094905 | 85 | 98 | 0.0 | 0.0 | 0.00 | 0.00 | 0.00 | 42 | 1015.7 |
| 20260831094404 | 84 | 48 | 0.0 | 0.0 | 0.00 | 0.00 | 0.00 | 43 | 1015.7 |
| 20260831093405 | 83 | 130 | 0.0 | 0.0 | 0.00 | 0.00 | 0.00 | 44 | 1015.7 |
| 20260831091904 | 82 | 61 | 0.0 | 0.0 | 0.00 | 0.00 | 0.00 | 45 | 1015.7 |
| 20260831091405 | 82 | 53 | 0.0 | 2.0 | 0.00 | 0.00 | 0.00 | 45 | 1015.8 |
| 20260831090904 | 82 | 71 | 0.0 | 0.0 | 0.00 | 0.00 | 0.00 | 46 | 1015.8 |
| 20260831090404 | 82 | 66 | 0.0 | 1.0 | 0.00 | 0.00 | 0.00 | 47 | 1015.8 |
| 20260831084404 | 81 | 98 | 0.0 | 0.0 | 0.00 | 0.00 | 0.00 | 49 | 1015.8 |
| 20260831083904 | 81 | 94 | 0.0 | 0.0 | 0.00 | 0.00 | 0.00 | 50 | 1015.8 |
| 20260831083404 | 81 | 81 | 0.0 | 0.0 | 0.00 | 0.00 | 0.00 | 50 | 1015.8 |
| 20260831081904 | 80 | 29 | 0.0 | 0.0 | 0.00 | 0.00 | 0.00 | 53 | 1015.8 |
| 20260831081404 | 80 | 27 | 0.0 | 0.0 | 0.00 | 0.00 | 0.00 | 54 | 1015.8 |
| 20260831080904 | 80 | 27 | 0.0 | 0.0 | 0.00 | 0.00 | 0.00 | 54 | 1015.8 |
| 20260831080404 | 79 | 26 | 0.0 | 0.0 | 0.00 | 0.00 | 0.00 | 54 | 1015.7 |
| 20260831074904 | 77 | 25 | 0.0 | 0.0 | 0.00 | 0.00 | 0.00 | 58 | 1015.7 |
| 20260831074405 | 77 | 25 | 0.0 | 0.0 | 0.00 | 0.00 | 0.00 | 58 | 1015.7 |
| 20260831073904 | 77 | 21 | 0.0 | 0.0 | 0.00 | 0.00 | 0.00 | 57 | 1015.7 |
| 20260831073404 | 76 | 20 | 0.0 | 0.0 | 0.00 | 0.00 | 0.00 | 57 | 1015.6 |
| 20260831071904 | 75 | 344 | 0.0 | 0.0 | 0.00 | 0.00 | 0.00 | 57 | 1015.6 |
| 20260831071404 | 75 | 344 | 0.0 | 0.0 | 0.00 | 0.00 | 0.00 | 57 | 1015.6 |
| 20260831070904 | 75 | 347 | 0.0 | 0.0 | 0.00 | 0.00 | 0.00 | 58 | 1015.6 |
| 20260831070404 | 75 | 340 | 0.0 | 0.0 | 0.00 | 0.00 | 0.00 | 58 | 1015.5 |
| 20260831064404 | 74 | 5 | 0.0 | 0.0 | 0.00 | 0.00 | 0.00 | 62 | 1015.3 |
| 20260831063904 | 73 | 12 | 0.0 | 0.0 | 0.00 | 0.00 | 0.00 | 62 | 1015.2 |
| 20260831061905 | 72 | 66 | 0.0 | 0.0 | 0.00 | 0.00 | 0.00 | 64 | 1015.0 |
| 20260831061405 | 72 | 41 | 0.0 | 0.0 | 0.00 | 0.00 | 0.00 | 64 | 1014.9 |
| 20260831060904 | 73 | 346 | 0.0 | 0.0 | 0.00 | 0.00 | 0.00 | 65 | 1014.9 |
| 20260831060404 | 73 | 346 | 0.0 | 0.0 | 0.00 | 0.00 | 0.00 | 63 | 1014.8 |
| 20260831054904 | 74 | 346 | 0.0 | 2.0 | 0.00 | 0.00 | 0.00 | 58 | 1014.7 |
| 20260831054404 | 74 | 344 | 0.0 | 3.0 | 0.00 | 0.00 | 0.00 | 58 | 1014.7 |
| 20260831053905 | 74 | 322 | 0.0 | 2.0 | 0.00 | 0.00 | 0.00 | 58 | 1014.6 |
| 20260831053404 | 74 | 322 | 0.0 | 0.0 | 0.00 | 0.00 | 0.00 | 59 | 1014.6 |
| 20260831051904 | 74 | 338 | 0.0 | 0.0 | 0.00 | 0.00 | 0.00 | 61 | 1014.5 |
| 20260831051404 | 74 | 338 | 0.0 | 1.0 | 0.00 | 0.00 | 0.00 | 61 | 1014.5 |
| 20260831050905 | 74 | 338 | 0.0 | 2.0 | 0.00 | 0.00 | 0.00 | 62 | 1014.6 |
| 20260831050405 | 73 | 338 | 0.0 | 2.0 | 0.00 | 0.00 | 0.00 | 62 | 1014.5 |
| 20260831044904 | 73 | 333 | 0.0 | 0.0 | 0.00 | 0.00 | 0.00 | 63 | 1014.5 |
| 20260831044404 | 73 | 333 | 0.0 | 0.0 | 0.00 | 0.00 | 0.00 | 63 | 1014.5 |
| 20260831043405 | 73 | 333 | 0.0 | 0.0 | 0.00 | 0.00 | 0.00 | 64 | 1014.6 |
| 20260831041904 | 73 | 336 | 0.0 | 0.0 | 0.00 | 0.00 | 0.00 | 65 | 1014.6 |
| 20260831041404 | 73 | 338 | 0.0 | 0.0 | 0.00 | 0.00 | 0.00 | 64 | 1014.6 |
| 20260831033904 | 72 | 355 | 0.0 | 0.0 | 0.00 | 0.00 | 0.00 | 72 | 1014.7 |
| 20260831033404 | 72 | 355 | 0.0 | 0.0 | 0.00 | 0.00 | 0.00 | 73 | 1014.7 |
| 20260831031904 | 71 | 355 | 0.0 | 0.0 | 0.00 | 0.00 | 0.00 | 74 | 1014.8 |
| 20260831031405 | 71 | 355 | 0.0 | 0.0 | 0.00 | 0.00 | 0.00 | 74 | 1014.8 |
| 20260831030904 | 71 | 355 | 0.0 | 0.0 | 0.00 | 0.00 | 0.00 | 75 | 1014.8 |
| 20260831024904 | 70 | 125 | 0.0 | 0.0 | 0.00 | 0.00 | 0.00 | 77 | 1015.0 |
| 20260831024404 | 70 | 125 | 0.0 | 0.0 | 0.00 | 0.00 | 0.00 | 77 | 1015.0 |
| 20260831023904 | 71 | 125 | 0.0 | 0.0 | 0.00 | 0.00 | 0.00 | 77 | 1015.1 |
| 20260831023404 | 71 | 125 | 0.0 | 0.0 | 0.00 | 0.00 | 0.00 | 76 | 1015.0 |
| 20260831021905 | 71 | 125 | 0.0 | 0.0 | 0.00 | 0.00 | 0.00 | 76 | 1015.0 |
| 20260831021404 | 71 | 125 | 0.0 | 0.0 | 0.00 | 0.00 | 0.00 | 76 | 1014.9 |
| 20260831020404 | 71 | 125 | 0.0 | 0.0 | 0.00 | 0.00 | 0.00 | 75 | 1014.8 |
| 20260831014904 | 71 | 125 | 0.0 | 0.0 | 0.00 | 0.00 | 0.00 | 75 | 1014.8 |
| 20260831014404 | 71 | 125 | 0.0 | 0.0 | 0.00 | 0.00 | 0.00 | 75 | 1014.8 |
| 20260831013904 | 71 | 125 | 0.0 | 0.0 | 0.00 | 0.00 | 0.00 | 75 | 1014.8 |
| 20260831013405 | 71 | 125 | 0.0 | 0.0 | 0.00 | 0.00 | 0.00 | 75 | 1014.8 |
| 20260831011904 | 71 | 125 | 0.0 | 0.0 | 0.00 | 0.00 | 0.00 | 74 | 1014.8 |
| 20260831011404 | 71 | 125 | 0.0 | 0.0 | 0.00 | 0.00 | 0.00 | 74 | 1014.8 |
| 20260831010905 | 71 | 125 | 0.0 | 0.0 | 0.00 | 0.00 | 0.00 | 74 | 1014.8 |
| 20260831010404 | 71 | 125 | 0.0 | 0.0 | 0.00 | 0.00 | 0.00 | 74 | 1014.8 |
| 20260831004904 | 71 | 125 | 0.0 | 0.0 | 0.00 | 0.00 | 0.00 | 73 | 1014.7 |
| 20260831004404 | 71 | 125 | 0.0 | 0.0 | 0.00 | 0.00 | 0.00 | 73 | 1014.8 |
| 20260831003904 | 71 | 125 | 0.0 | 0.0 | 0.00 | 0.00 | 0.00 | 72 | 1014.8 |
| 20260831003404 | 71 | 125 | 0.0 | 0.0 | 0.00 | 0.00 | 0.00 | 72 | 1014.7 |
| 20260831001405 | 72 | 124 | 0.0 | 0.0 | 0.00 | 0.00 | 0.00 | 71 | 1014.7 |
| 20260831000905 | 72 | 124 | 0.0 | 0.0 | 0.00 | 0.00 | 0.00 | 71 | 1014.6 |
| 20260831000405 | 72 | 124 | 0.0 | 0.0 | 0.00 | 0.00 | 0.00 | 71 | 1014.6 |
| 20260830234904 | 72 | 124 | 0.0 | 0.0 | 0.00 | 0.00 | 0.00 | 70 | 1014.5 |
| 20260830234405 | 72 | 125 | 0.0 | 0.0 | 0.00 | 0.00 | 0.00 | 70 | 1014.5 |
| 20260830233904 | 72 | 131 | 1.0 | 3.0 | 0.00 | 0.00 | 0.00 | 70 | 1014.5 |
| 20260830233404 | 72 | 125 | 0.0 | 0.0 | 0.00 | 0.00 | 0.00 | 69 | 1014.5 |
| 20260830231905 | 73 | 169 | 0.0 | 0.0 | 0.00 | 0.00 | 0.00 | 65 | 1014.2 |
| 20260830231404 | 74 | 170 | 0.0 | 0.0 | 0.00 | 0.00 | 0.00 | 64 | 1014.2 |
| 20260830230904 | 75 | 170 | 0.0 | 0.0 | 0.00 | 0.00 | 0.00 | 63 | 1014.2 |
| 20260830230404 | 75 | 170 | 0.0 | 0.0 | 0.00 | 0.00 | 0.00 | 62 | 1014.1 |
| 20260830224904 | 76 | 170 | 0.0 | 0.0 | 0.00 | 0.00 | 0.00 | 58 | 1014.0 |
| 20260830221905 | 78 | 171 | 0.0 | 0.0 | 0.00 | 0.00 | 0.00 | 54 | 1013.8 |
| 20260830221404 | 78 | 171 | 0.0 | 0.0 | 0.00 | 0.00 | 0.00 | 53 | 1013.8 |
| 20260830220904 | 79 | 171 | 0.0 | 0.0 | 0.00 | 0.00 | 0.00 | 52 | 1013.8 |
| 20260830214904 | 79 | 170 | 0.0 | 0.0 | 0.00 | 0.00 | 0.00 | 52 | 1013.8 |
| 20260830213904 | 80 | 163 | 0.0 | 0.0 | 0.00 | 0.00 | 0.00 | 51 | 1013.7 |
| 20260830213404 | 81 | 120 | 0.0 | 5.0 | 0.00 | 0.00 | 0.00 | 50 | 1013.6 |
| 20260830211904 | 81 | 240 | 1.0 | 8.0 | 0.00 | 0.00 | 0.00 | 49 | 1013.5 |
| 20260830211404 | 81 | 253 | 2.0 | 8.0 | 0.00 | 0.00 | 0.00 | 49 | 1013.4 |
| 20260830204404 | 82 | 246 | 3.0 | 8.0 | 0.00 | 0.00 | 0.00 | 47 | 1013.4 |
| 20260830203905 | 83 | 243 | 3.0 | 8.0 | 0.00 | 0.00 | 0.00 | 47 | 1013.4 |
| 20260830201904 | 84 | 230 | 0.0 | 5.0 | 0.00 | 0.00 | 0.00 | 47 | 1013.5 |
| 20260830201404 | 84 | 228 | 2.0 | 7.0 | 0.00 | 0.00 | 0.00 | 46 | 1013.4 |
| 20260830200404 | 84 | 232 | 1.0 | 7.0 | 0.00 | 0.00 | 0.00 | 46 | 1013.3 |
| 20260830194904 | 85 | 232 | 1.0 | 7.0 | 0.00 | 0.00 | 0.00 | 45 | 1013.1 |
| 20260830194405 | 85 | 242 | 0.0 | 10.0 | 0.00 | 0.00 | 0.00 | 45 | 1013.0 |
| 20260830193904 | 86 | 241 | 1.0 | 7.0 | 0.00 | 0.00 | 0.00 | 44 | 1012.9 |
| 20260830193404 | 86 | 226 | 1.0 | 9.0 | 0.00 | 0.00 | 0.00 | 43 | 1012.8 |
| 20260830191404 | 88 | 218 | 2.0 | 7.0 | 0.00 | 0.00 | 0.00 | 40 | 1012.7 |
| 20260830190904 | 88 | 219 | 0.0 | 6.0 | 0.00 | 0.00 | 0.00 | 39 | 1012.6 |
| 20260830190404 | 88 | 221 | 2.0 | 9.0 | 0.00 | 0.00 | 0.00 | 39 | 1012.5 |
| 20260830183904 | 90 | 208 | 3.0 | 7.0 | 0.00 | 0.00 | 0.00 | 36 | 1012.5 |